Retour au catalogue

COSMOS 2251 DEB

LostVLEO
NORAD 36423·DEBRIS·🇷🇺 Russia

Lancé Jun 16, 1993 depuis Plesetsk Cosmodrome

Loading…

Prochains Passages (prochaines 24 heures)

TLE

PériméSource: Space-Track

Époque: Aug 7, 2026, 08:25 UTC

1 36423U 93036AZW 26219.35136445  .00068750  00000-0  29950-2 0  9993
2 36423  73.7679  87.2038 0039038  52.5898 307.8841 15.21170222286018

Suivez COSMOS 2251 DEB en temps réel avec AllMySat

Download on the App Store